DMSP F-17

operational
NORAD ID: 29522 Int'l Des: 2006-050 Owner: AFSMC Country: US
LEOCIRCULARRETROGRADESSO
追跡 地上

DMSP F-17について

説明を読み込み中...

リアルタイム位置

3D地球を読み込み中...

次回通過

高度履歴

Altitude vs Time

uPlot chart will show altitude changes over time

軌道要素

1 29522U 06050A 26073.91074601 .00000203 00000-0 12760-3 0 9991
2 29522 98.7413 82.3998 0009474 331.3578 28.7074 14.14966670999084
Epoch: Mar 14, 2026 • Age: 13 hours

現在のステータス

高度 849.8 km
速度 7.43 km/s
衛星直下点 -37.35°S, 107.72°E
打ち上げ日 Nov 4, 2006
運用期間 19.3 years
タイプ other

技術仕様

分類 Payload
質量 1217.00 kg
乾燥質量 1217.00 kg
総質量 1217.00 kg
長さ 4.40 m
直径 1.20 m
スパン 6.60 m
形状 Box + Pan
製造者 LMEW
バスタイプ Block 5D
フェーズステータス In Orbit
所有者/国 AFSMC/US

大規模コンステレーション

Loading constellations...